When you browse on this site, cookies collect data to enhance your experience and personalize the content and advertising you see.
Visit our Privacy Policy to learn more. By continuing to use the site, you agree to this use of cookies and data.
  • în România
  • Lista ţărilor
  • Pe 7 zile
  • Temperatura apei
  • Meteo pe hartă
  • Widget-uri
  • user-avatar
    Intrare

    Meteo pe oră la Newport

    Astăzi, 18 Octombrie, Vineri

    Timp Temperatura Precipitaţii Vânt Presiune Umiditate
    00:00 +10°C° 0 mm 4 m/s 746 mmHg 92%
    01:00 +10°C° 1.4 mm 4 m/s 746 mmHg 92%
    02:00 +9°C° 1.4 mm 5 m/s 745 mmHg 92%
    03:00 +9°C° 1.4 mm 6 m/s 745 mmHg 92%
    04:00 +9°C° 0.5 mm 6 m/s 745 mmHg 91%
    05:00 +9°C° 0.5 mm 7 m/s 745 mmHg 90%
    06:00 +9°C° 0 mm 7 m/s 746 mmHg 90%
    07:00 +9°C° 0.7 mm 8 m/s 746 mmHg 89%
    08:00 +10°C° 0.7 mm 9 m/s 746 mmHg 87%
    09:00 +9°C° 0.7 mm 10 m/s 746 mmHg 85%
    10:00 +11°C° 0.8 mm 11 m/s 746 mmHg 84%
    11:00 +11°C° 0.8 mm 11 m/s 746 mmHg 83%
    12:00 +10°C° 0.8 mm 12 m/s 746 mmHg 82%
    13:00 +10°C° 0.7 mm 12 m/s 745 mmHg 83%
    14:00 +10°C° 0.7 mm 12 m/s 745 mmHg 83%
    15:00 +10°C° 0.7 mm 12 m/s 745 mmHg 84%
    16:00 +10°C° 0.6 mm 12 m/s 745 mmHg 85%
    17:00 +9°C° 0.6 mm 12 m/s 745 mmHg 86%
    18:00 +9°C° 0.6 mm 12 m/s 745 mmHg 86%
    19:00 +9°C° 0.7 mm 11 m/s 745 mmHg 87%
    20:00 +9°C° 0.7 mm 10 m/s 745 mmHg 88%
    21:00 +10°C° 0.7 mm 9 m/s 745 mmHg 89%
    22:00 +9°C° 0.5 mm 8 m/s 745 mmHg 90%
    23:00 +9°C° 0.5 mm 7 m/s 746 mmHg 91%

    Mâine, 19 Octombrie, Sâmbătă

    Timp Temperatura Precipitaţii Vânt Presiune Umiditate
    00:00 +8°C° 0.5 mm 6 m/s 746 mmHg 92%
    01:00 +8°C° 0.3 mm 6 m/s 746 mmHg 93%
    02:00 +8°C° 0.3 mm 5 m/s 746 mmHg 93%
    03:00 +7°C° 0.3 mm 5 m/s 746 mmHg 94%
    04:00 +7°C° 0.2 mm 5 m/s 746 mmHg 94%
    05:00 +7°C° 0.2 mm 4 m/s 747 mmHg 94%
    06:00 +7°C° 0.2 mm 4 m/s 747 mmHg 95%
    07:00 +8°C° 0.1 mm 4 m/s 748 mmHg 93%
    08:00 +10°C° 0.1 mm 3 m/s 748 mmHg 91%
    09:00 +10°C° 0.1 mm 3 m/s 748 mmHg 90%
    10:00 +11°C° 0.1 mm 3 m/s 749 mmHg 87%
    11:00 +12°C° 0.1 mm 3 m/s 749 mmHg 84%
    12:00 +12°C° 0.1 mm 4 m/s 749 mmHg 81%
    13:00 +12°C° 0.1 mm 4 m/s 750 mmHg 81%
    14:00 +12°C° 0.1 mm 4 m/s 750 mmHg 80%
    15:00 +12°C° 0.1 mm 4 m/s 750 mmHg 80%
    16:00 +11°C° 0 mm 4 m/s 751 mmHg 84%
    17:00 +10°C° 0 mm 4 m/s 751 mmHg 88%
    18:00 +8°C° 0 mm 3 m/s 751 mmHg 92%
    19:00 +8°C° 0 mm 3 m/s 752 mmHg 92%
    20:00 +8°C° 0 mm 3 m/s 752 mmHg 93%
    21:00 +8°C° 0 mm 3 m/s 753 mmHg 94%
    22:00 +8°C° 0 mm 3 m/s 753 mmHg 94%
    23:00 +7°C° 0 mm 4 m/s 753 mmHg 93%

    Poimâine, 20 Octombrie, Duminică

    Timp Temperatura Precipitaţii Vânt Presiune Umiditate
    00:00 +7°C° 0 mm 4 m/s 754 mmHg 93%
    01:00 +6°C° 0 mm 4 m/s 754 mmHg 93%
    02:00 +6°C° 0 mm 4 m/s 754 mmHg 92%
    03:00 +6°C° 0 mm 4 m/s 754 mmHg 92%
    04:00 +6°C° 0 mm 4 m/s 755 mmHg 92%
    05:00 +6°C° 0 mm 4 m/s 755 mmHg 92%
    06:00 +6°C° 0 mm 4 m/s 755 mmHg 92%
    07:00 +6°C° 0 mm 4 m/s 756 mmHg 90%
    08:00 +7°C° 0 mm 4 m/s 756 mmHg 87%
    09:00 +8°C° 0 mm 5 m/s 757 mmHg 85%
    10:00 +9°C° 0 mm 5 m/s 757 mmHg 81%
    11:00 +9°C° 0 mm 6 m/s 757 mmHg 76%
    12:00 +10°C° 0 mm 6 m/s 758 mmHg 72%
    13:00 +10°C° 0 mm 6 m/s 758 mmHg 72%
    14:00 +10°C° 0 mm 6 m/s 758 mmHg 71%
    15:00 +9°C° 0 mm 6 m/s 758 mmHg 70%
    16:00 +8°C° 0 mm 6 m/s 758 mmHg 73%
    17:00 +7°C° 0 mm 5 m/s 759 mmHg 76%
    18:00 +6°C° 0 mm 5 m/s 760 mmHg 80%
    19:00 +5°C° 0 mm 5 m/s 760 mmHg 81%
    20:00 +5°C° 0 mm 5 m/s 760 mmHg 83%
    21:00 +3°C° 0 mm 5 m/s 761 mmHg 85%
    22:00 +3°C° 0 mm 5 m/s 761 mmHg 84%
    23:00 +5°C° 0 mm 5 m/s 761 mmHg 84%

    21 Octombrie, Luni

    Timp Temperatura Precipitaţii Vânt Presiune Umiditate
    00:00 +5°C° 0 mm 5 m/s 761 mmHg 83%
    01:00 +5°C° 0 mm 5 m/s 761 mmHg 84%
    02:00 +5°C° 0 mm 5 m/s 761 mmHg 86%
    03:00 +5°C° 0 mm 6 m/s 762 mmHg 87%
    04:00 +5°C° 0 mm 6 m/s 762 mmHg 86%
    05:00 +5°C° 0 mm 6 m/s 762 mmHg 85%
    06:00 +7°C° 0 mm 5 m/s 763 mmHg 84%
    07:00 +7°C° 0 mm 5 m/s 763 mmHg 83%
    08:00 +8°C° 0 mm 5 m/s 764 mmHg 82%
    09:00 +8°C° 0 mm 5 m/s 764 mmHg 81%
    10:00 +9°C° 0 mm 5 m/s 765 mmHg 79%
    11:00 +10°C° 0 mm 5 m/s 765 mmHg 77%
    12:00 +12°C° 0 mm 4 m/s 766 mmHg 74%
    13:00 +11°C° 0 mm 4 m/s 766 mmHg 76%
    14:00 +11°C° 0 mm 4 m/s 765 mmHg 78%
    15:00 +11°C° 0 mm 3 m/s 765 mmHg 80%
    16:00 +10°C° 0 mm 3 m/s 766 mmHg 83%
    17:00 +9°C° 0 mm 2 m/s 766 mmHg 85%
    18:00 +8°C° 0 mm 2 m/s 766 mmHg 88%
    19:00 +8°C° 0 mm 2 m/s 767 mmHg 89%
    20:00 +7°C° 0 mm 2 m/s 767 mmHg 89%
    21:00 +7°C° 0 mm 2 m/s 767 mmHg 90%
    22:00 +7°C° 0 mm 2 m/s 767 mmHg 89%
    23:00 +6°C° 0 mm 2 m/s 767 mmHg 88%

    22 Octombrie, Marţi

    Timp Temperatura Precipitaţii Vânt Presiune Umiditate
    00:00 +6°C° 0 mm 2 m/s 767 mmHg 88%
    01:00 +6°C° 0 mm 2 m/s 767 mmHg 88%
    02:00 +6°C° 0 mm 2 m/s 767 mmHg 89%
    03:00 +5°C° 0 mm 2 m/s 767 mmHg 89%
    04:00 +5°C° 0 mm 2 m/s 767 mmHg 90%
    05:00 +5°C° 0 mm 2 m/s 767 mmHg 90%
    06:00 +5°C° 0 mm 2 m/s 767 mmHg 90%
    07:00 +6°C° 0 mm 2 m/s 767 mmHg 88%
    08:00 +7°C° 0 mm 2 m/s 767 mmHg 87%
    09:00 +9°C° 0 mm 2 m/s 767 mmHg 85%
    10:00 +10°C° 0 mm 2 m/s 767 mmHg 82%
    11:00 +11°C° 0 mm 3 m/s 767 mmHg 78%
    12:00 +12°C° 0 mm 3 m/s 767 mmHg 75%
    13:00 +12°C° 0 mm 3 m/s 766 mmHg 76%
    14:00 +12°C° 0 mm 3 m/s 766 mmHg 77%
    15:00 +12°C° 0 mm 3 m/s 765 mmHg 78%
    16:00 +11°C° 0 mm 3 m/s 765 mmHg 82%
    17:00 +10°C° 0 mm 2 m/s 765 mmHg 85%
    18:00 +8°C° 0 mm 2 m/s 764 mmHg 89%
    19:00 +8°C° 0 mm 2 m/s 764 mmHg 90%
    20:00 +8°C° 0 mm 2 m/s 764 mmHg 91%
    21:00 +8°C° 0 mm 2 m/s 764 mmHg 92%
    22:00 +9°C° 0 mm 2 m/s 764 mmHg 92%
    23:00 +9°C° 0 mm 2 m/s 764 mmHg 93%

    23 Octombrie, Miercuri

    Timp Temperatura Precipitaţii Vânt Presiune Umiditate
    00:00 +9°C° 0 mm 2 m/s 763 mmHg 93%
    01:00 +9°C° 0 mm 2 m/s 763 mmHg 94%
    02:00 +9°C° 0 mm 2 m/s 762 mmHg 94%
    03:00 +8°C° 0 mm 2 m/s 762 mmHg 94%
    04:00 +9°C° 0 mm 2 m/s 762 mmHg 95%
    05:00 +9°C° 0 mm 2 m/s 761 mmHg 95%
    06:00 +9°C° 0 mm 3 m/s 761 mmHg 95%
    07:00 +9°C° 0 mm 3 m/s 761 mmHg 94%
    08:00 +10°C° 0 mm 3 m/s 761 mmHg 92%
    09:00 +10°C° 0 mm 3 m/s 760 mmHg 91%
    10:00 +11°C° 0 mm 4 m/s 760 mmHg 88%
    11:00 +12°C° 0 mm 4 m/s 760 mmHg 85%
    12:00 +12°C° 0 mm 4 m/s 759 mmHg 81%
    13:00 +12°C° 0 mm 4 m/s 759 mmHg 81%
    14:00 +12°C° 0 mm 4 m/s 759 mmHg 80%
    15:00 +12°C° 0 mm 4 m/s 758 mmHg 80%
    16:00 +11°C° 0 mm 4 m/s 758 mmHg 83%
    17:00 +10°C° 0 mm 4 m/s 758 mmHg 86%
    18:00 +8°C° 0 mm 4 m/s 758 mmHg 89%
    19:00 +9°C° 0 mm 5 m/s 758 mmHg 89%
    20:00 +9°C° 0 mm 5 m/s 758 mmHg 89%
    21:00 +9°C° 0 mm 6 m/s 758 mmHg 89%
    22:00 +9°C° 0 mm 6 m/s 758 mmHg 90%
    23:00 +9°C° 0 mm 6 m/s 758 mmHg 91%
    Arată mai mult